Location: Sternwarte ZA, Rosenfeld-Brittheim
(48.2889°N, 8.6789°E)
Time: 20:51:26
(UTC+02:00)

ISS - Pass Details

Date: 18 July 2019
Orbit: 409 x 418 km, 51.6° (Epoch: 20 July)

Event Time Altitude Azimuth Distance (km) Brightness Sun altitude
Rises 04:41:39 0° 289° (WNW) 2,346 -0.2 -8.7°
Reaches altitude 10° 04:43:57 10° 276° (W) 1,479 -1.3 -8.4°
Maximum altitude 04:46:46 26° 218° (SW) 852 -2.8 -8.1°
Drops below altitude 10° 04:49:34 10° 159° (SSE) 1,469 -1.2 -7.7°
Sets 04:51:50 0° 147° (SSE) 2,325 -0.1 -7.5°
